TimeMDT,TemperatureF,Dew PointF,Humidity,Sea Level PressureIn,VisibilityMPH,Wind Direction,Wind SpeedMPH,Gust SpeedMPH,PrecipitationIn,Events,Conditions,WindDirDegrees,DateUTC
12:53 AM,54.0,43.0,66,29.86,10.0,South,12.7,-,N/A,,Clear,180,2013-08-06 06:53:00
1:53 AM,51.1,43.0,74,29.87,10.0,South,10.4,-,N/A,,Clear,170,2013-08-06 07:53:00
2:53 AM,59.0,43.0,55,29.85,10.0,SW,16.1,-,N/A,,Clear,220,2013-08-06 08:53:00
3:53 AM,53.1,42.1,66,29.87,10.0,SSE,8.1,-,N/A,,Clear,160,2013-08-06 09:53:00
4:53 AM,54.0,42.1,64,29.86,10.0,SSW,9.2,-,N/A,,Clear,210,2013-08-06 10:53:00
5:53 AM,52.0,41.0,66,29.89,10.0,South,10.4,-,N/A,,Clear,170,2013-08-06 11:53:00
6:53 AM,48.0,39.9,74,29.96,10.0,SE,5.8,-,N/A,,Clear,130,2013-08-06 12:53:00
7:53 AM,55.9,43.0,62,29.94,10.0,South,6.9,-,N/A,,Clear,180,2013-08-06 13:53:00
8:53 AM,69.1,43.0,39,29.88,10.0,SW,13.8,-,N/A,,Clear,220,2013-08-06 14:53:00
9:53 AM,73.9,37.9,27,29.87,10.0,SSW,5.8,-,N/A,,Clear,200,2013-08-06 15:53:00
10:53 AM,75.9,34.0,22,29.89,10.0,WSW,5.8,-,N/A,,Clear,240,2013-08-06 16:53:00
11:53 AM,80.1,30.9,17,29.83,10.0,North,13.8,-,N/A,,Clear,350,2013-08-06 17:53:00
12:53 PM,77.0,28.9,17,29.85,10.0,Calm,Calm,-,N/A,,Mostly Cloudy,0,2013-08-06 18:53:00
1:53 PM,80.1,25.0,13,29.84,10.0,NNW,11.5,16.1,N/A,,Scattered Clouds,340,2013-08-06 19:53:00
2:53 PM,78.1,30.0,17,29.83,10.0,NW,16.1,25.3,N/A,,Scattered Clouds,310,2013-08-06 20:53:00
3:53 PM,77.0,28.9,17,29.84,10.0,WSW,3.5,-,N/A,,Overcast,240,2013-08-06 21:53:00
4:53 PM,75.9,32.0,20,29.84,10.0,SW,12.7,23.0,N/A,,Clear,230,2013-08-06 22:53:00
5:53 PM,72.0,37.9,29,29.86,10.0,SSW,17.3,-,N/A,,Partly Cloudy,210,2013-08-06 23:53:00
6:53 PM,70.0,39.0,32,29.89,10.0,SSW,18.4,-,N/A,,Mostly Cloudy,210,2013-08-07 00:53:00
7:53 PM,66.0,39.9,38,29.87,10.0,SSW,10.4,-,N/A,,Clear,210,2013-08-07 01:53:00
8:53 PM,61.0,39.9,46,29.86,10.0,South,11.5,-,N/A,,Clear,180,2013-08-07 02:53:00
9:53 PM,59.0,39.0,48,29.86,10.0,South,10.4,-,N/A,,Partly Cloudy,170,2013-08-07 03:53:00
10:53 PM,55.9,39.0,53,29.88,10.0,South,9.2,-,N/A,,Clear,170,2013-08-07 04:53:00
11:53 PM,53.1,37.9,57,29.88,10.0,SSE,9.2,-,N/A,,Clear,150,2013-08-07 05:53:00